Regional Weather Roundup
Issued by NWS

Home | Current Version | Previous Version | Graphics & Text | Print | Product List | Glossary On
Versions: 1 2 3 4 5 6 7 8 9 10 11 12 13 14 15 16 17 18 19 20 21 22 23 24 25 26 27
000
ASUS45 KBOU 252107
RWRCO

WEATHER ROUNDUP FOR COLORADO
NATIONAL WEATHER SERVICE DENVER/BOULDER CO
300 PM MDT SUN JUN 25 2017

NOTE: "FAIR" INDICATES FEW OR NO CLOUDS BELOW 12000 FEET WITH NO
SIGNIFICANT WEATHER AND/OR OBSTRUCTIONS TO VISIBILITY.

COZ001>005-013-030-031-252200-
...NORTHWEST COLORADO...

CITY           SKY/WX    TMP DP  RH WIND       PRES   REMARKS
CRAIG          FAIR      83  24  11 VRB6      30.30F
HAYDEN         FAIR      79  30  17 W10G17    30.32F
MEEKER         FAIR      85  26  11 NW10G18   30.29F
RABBIT EARS PA FAIR      61  32  33 NW10G17   30.60S
STEAMBOAT SPGS FAIR      77  31  18 SW7       30.34S
WALDEN         PTSUNNY   70  32  24 N15       30.43S
$$

COZ006>008-011-252200-
...WEST CENTRAL VALLEYS...

CITY           SKY/WX    TMP DP  RH WIND       PRES   REMARKS
GRAND JUNCTION FAIR      92  26   9 W6G21     30.13F
MONTROSE       FAIR      89  26  10 VRB3      30.21F
EAGLE          MOSUNNY   84  32  15 VRB7G17   30.28F
RIFLE          FAIR      91  24   9 W10G17    30.20F
DELTA          FAIR      95  24   7 SW13      30.16F
NUCLA          FAIR      93  18   6 NW14G28   30.24F
$$

COZ017>023-064>068-252200-
...SOUTHWEST COLORADO...

CITY           SKY/WX    TMP DP  RH WIND       PRES   REMARKS
DURANGO        FAIR      87  32  14 W9G22     30.26F
CORTEZ         FAIR      92  25   9 NW13G21   30.21F
PAGOSA SPRINGS FAIR      83  24  11 SW12G26   30.35F
TELLURIDE      FAIR      77  13   8 W15G22    30.50S
WOLF CREEK PAS FAIR      61  37  41 SW15G29   30.72F
$$

COZ009-010-012-014-032>034-037-058>063-252200-
...CENTRAL COLORADO...

CITY           SKY/WX    TMP DP  RH WIND       PRES   REMARKS
ASPEN          FAIR      80  23  12 VRB7G23   30.36F
BUENA VISTA    FAIR      78  27  15 S3        30.33F
COPPER MTN     FAIR      61  12  15 W21G30    30.69S
BERTHOUD PASS  FAIR      54  39  58 W25G39    30.71F
COTTONWOOD PAS FAIR      79  27  14 CALM      30.50F
GUNNISON       FAIR      81  30  15 NE12      30.33F
KREMMLING      NOT AVBL
LEADVILLE      FAIR      70  12  10 W14G22    30.51S
MONARCH PASS   FAIR      64  27  24 SW23G31   30.78F
SALIDA         FAIR      86  20   9 SW5       30.35F
SUNLIGHT       FAIR      68  27  21 W10G21    30.64S
WILKERSON PASS PTSUNNY   55  41  58 E6G17     30.65S
$$

COZ069>075-252200-
...SAN LUIS VALLEY/SANGRE DE CRISTO MOUNTAINS...

CITY           SKY/WX    TMP DP  RH WIND       PRES   REMARKS
ALAMOSA        FAIR      78  38  23 SE7       30.32F
DEL NORTE      FAIR      78  46  32 SE14      30.35F
LA VETA PASS   FAIR      64  48  55 MISG      30.67F
SAGUACHE       FAIR      81  37  21 N3        30.33F
$$

COZ035-036-038>040-252200-
...NORTHERN COLORADO FRONT RANGE...

CITY           SKY/WX    TMP DP  RH WIND       PRES   REMARKS
DENVER INTL AP PTSUNNY   68  50  52 VRB7      30.32F
DMNS CITY PARK   N/A     69  50  50 NE5G18    30.33S
AURORA         MOSUNNY   70  52  51 N9        30.33F
FRONT RANGE AP PTSUNNY   73  54  49 NE8G20    30.34F
ERIE MUNI ARPT CLOUDY    67  51  56 NW3       30.32F
BOULDER MUN AP CLOUDY    68  50  52 CALM      30.33F
CENTENNIAL     FAIR      68  51  54 N12       30.34F
BROOMFIELD     CLOUDY    66  50  55 N8        30.35F
FORT COLLINS   CLOUDY    68  51  54 SE5       30.33F
LONGMONT       CLOUDY    72  51  47 NW3       30.34F
$$

COZ041-046-047-076>085-087-088-252200-
...PIKES PEAK/PALMER DIVIDE AND SOUTHERN FOOTHILLS...

CITY           SKY/WX    TMP DP  RH WIND       PRES   REMARKS
COLO. SPRINGS  PTSUNNY   76  49  38 E18       30.30F
A. F. ACADEMY  PTSUNNY   76  47  35 NE8       30.32S
SCHRIEVER AFB  FAIR      72  52  49 N7        30.32F
CHEYENNE MTN   LGT RAIN  66  52  61 SW6       30.31S
ELLICOTT       LGT RAIN N/A N/A N/A SE13      30.30F
FALCON           N/A     75  45  33 S12G18    30.36F
FORT CARSON    FAIR      75  49  39 E7        30.27F
LIMON          PTSUNNY   74  51  44 SE7       30.29F
MONUMENT HILL  PTSUNNY   70  46  43 NE10G21   30.39F
CANON CITY     SUNNY     86  54  32 E8G20     30.22F
WALSENBURG     FAIR      86  50  28 E5        30.27F
TRINIDAD       FAIR      85  50  29 E10       30.25F
$$

COZ042>045-048>051-090-091-252200-
...NORTHEAST COLORADO...

CITY           SKY/WX    TMP DP  RH WIND       PRES   REMARKS
GREELEY ARPT   CLOUDY    66  52  60 CALM      30.33F
AKRON          FAIR      67  52  58 SE14G23   30.32F
BURLINGTON     PTSUNNY   69  55  60 E17G23    30.31S
WRAY           CLOUDY    64  54  68 SE10      30.32F
YUMA           CLOUDY    63  54  72 E10G17    30.32F
STERLING       PTSUNNY   72  52  49 S9        30.29F
HOLYOKE        NOT AVBL
FORT MORGAN    FAIR      71  52  50 E8        30.31F
$$

COZ086-089-092>099-252200-
...SOUTHEAST COLORADO...

CITY           SKY/WX    TMP DP  RH WIND       PRES   REMARKS
PUEBLO         FAIR      85  53  33 SE12      30.19F
LA JUNTA       FAIR      85  57  38 E16       30.18F
LAMAR          FAIR      76  59  55 E25G33    30.20S
SPRINGFIELD      N/A     79  60  52 S17G23    30.20F
$$




USA.gov is the U.S. government's official web portal to all federal, state and local government web resources and services.